www.pogodaiklimat.ru

Погода и климат >> Архив погоды >> Мексика >> Arriaga


ПОГОДА в Arriaga

  • Прогноз погоды в Arriaga
  • Монитор погоды в Arriaga
  • Климат города

АРХИВ ПОГОДЫ в Arriaga

Время (UTC), дата Ветер
(напр.,м/с)
 
Видим.   Явления Облачность Т
(С)
Тd
(С)
f
(%)
Тe
(С)
Тes
(С)
Комфортность P
(гПа)
Po
(гПа)
Тmin
(С)
Tmax
(С)
R
(мм)
R24
(мм)
S
(см)
12 14.09 штиль 0 1000 м дождь 9/0 2000 м
[Ac As]
+24.8 +24.0 95 +34 +34 очень
душно
1012.5 1007.0 11
15 14.09 штиль 0 3000 м 4/0 2000 м
[Ac trans]
+28.0 +25.0 84 +40 +50 очень
душно
1013.9 1008.3
18 14.09 штиль 0 3000 м 3/3 840 м
[Cu med, cong]
+32.8 +25.9 67 +48 +68 опасность
перегрева
1012.2 1006.7 +24.5 +33.0
21 14.09 Ю 3 3000 м 5/1 840 м
[Cu med, cong Ac lent]
+33.0 +26.2 68 +49 +55 опасность
перегрева
1010.5 1005.0
00 15.09 штиль 0 3000 м 6/3 600 м
[Sc diur, vesp Ac trans]
+29.0 +26.4 86 +44 +45 опасность
перегрева
1010.7 1005.3 +24.5 +35.4
06 15.09 штиль 0 1000 м 5/0 2000 м
[Ac trans]
+26.4 +25.3 94 +38 +38 очень
душно
1013.0 1007.5 +24.5 +35.4
12 15.09 штиль 0 1000 м 5/0 2000 м
[Ac trans]
+24.4 +23.8 96 +33 +33 очень
душно
1011.3 1005.8 +24.4 +35.4
15 15.09 штиль 0 3000 м 5/0
[Cs]
+27.4 +24.1 82 +38 +49 очень
душно
1012.6 1007.1
21 15.09 Ю 1 3000 м 4/4 840 м
[Cu med, cong]
+35.2 +27.1 63 +53 +62 опасность
перегрева
1009.1 1003.6
00 16.09 штиль 0 3000 м 4/4 600 м
[Cu med, cong]
+31.0 +26.5 77 +47 +48 опасность
перегрева
1009.4 1004.0 +24.4 +37.0
12 16.09 штиль 0 2000 м 9/0 2000 м
[Ac trans]
+25.7 +24.9 95 +36 +36 очень
душно
1011.3 1005.7 +25.4 +31.0
18 16.09 штиль 0 5000 м ясно +35.2 +29.9 74 +62 +89 опасность
перегрева
1010.5 1005.0 +26.5 +36.8
21 16.09 С 1 5000 м 6/3 800 м
[Cu med, cong]
+36.0 +31.3 77 +68 +75 опасность
перегрева
1007.2 1001.7
00 17.09 штиль 0 5000 м 3/3 600 м
[Cu med, cong]
+35.4 +30.4 75 +63 +63 опасность
перегрева
1007.2 1001.8 +27.0 +37.8
03 17.09 С 1 1000 м зарница 4/4 800 м
[Cb cap]
+30.2 +29.2 94 +53 +53 опасность
перегрева
1010.3 1004.9
06 17.09 штиль 0 1000 м в посл. час гроза 4/4 600 м
[Cb cap]
+27.0 +26.1 95 +41 +41 опасность
перегрева
1010.9 1005.5 +26.5 +32.8
12 17.09 штиль 0 2000 м {гроза} 4/0 2000 м
[Ac cuf]
+24.0 +23.4 96 1011.0 26
15 17.09 С 2 5000 м 5/0 2000 м
[Ac trans]
+29.4 +25.4 79 +43 +49 опасность
перегрева
1011.5 1006.0
18 17.09 С 2 5000 м 4/0
[Cs]
+34.4 +27.7 68 +54 +73 опасность
перегрева
1010.8 1005.3 +26.0 +35.4
21 17.09 штиль 0 5000 м гроза без осадков 9/4 800 м
[Cb cap Ac cuf]
+31.0 +29.5 92 +56 +60 опасность
перегрева
1008.7 1003.2
00 18.09 С 2 5000 м в посл. час морось 9/4 600 м
[Cb cap Ac As]
+29.0 +27.7 93 +47 +47 опасность
перегрева
1009.1 1003.6 +27.0 +37.0
03 18.09 штиль 0 1000 м зарница {дождь} 9/3 800 м
[Cb cap Ac As]
+28.4 +27.6 95 +46 +46 опасность
перегрева
1010.4 1004.9 6
09 18.09 Ю 3 1000 м 4/0 2000 м
[Ac trans]
+29.2 +24.0 74 +41 +41 опасность
перегрева
1008.7 1003.3
12 18.09 штиль 0 1000 м 5/0 2000 м
[Ac lent]
+27.0 +26.2 95 +41 +41 опасность
перегрева
1009.9 1004.4 +26.5 +37.0
15 18.09 Ю 1 3000 м 5/0 2000 м
[Ac trans]
+30.4 +24.2 70 +42 +50 опасность
перегрева
1011.6 1006.1
18 18.09 Ю 1 2000 м 6/6 840 м
[Sc diur, vesp]
+33.8 +27.6 70 +53 +63 опасность
перегрева
1011.0 1005.6 +26.5 +35.0
21 18.09 Ю 2 2000 м 8/8 840 м
[Sc]
+32.0 +28.1 80 +53 +55 опасность
перегрева
1007.9 1002.4
00 19.09 штиль 0 3000 м 4/4 600 м
[Sc diur, vesp]
+31.2 +27.0 78 +49 +49 опасность
перегрева
1007.2 1001.8 +26.5 +35.4
03 19.09 Ю 5 1000 м 9/9 840 м
[Cb cap]
+27.2 +25.3 89 +39 +39 очень
душно
1010.8 1005.3
06 19.09 С 1 1000 м дождь 10/1 600 м
[Cb cap As op]
+24.6 +23.5 94 +33 +33 очень
душно
1011.6 1006.1 24
12 19.09 штиль 0 1000 м 10/3 840 м
[Sc As op]
+24.4 +23.8 96 +33 +33 очень
душно
1011.3 1005.7 +23.5 +35.4
15 19.09 штиль 0 3000 м 4/0 2000 м
[Ac trans]
+27.6 +25.2 87 +40 +49 очень
душно
1012.4 1006.8
18 19.09 штиль 0 2000 м 8/8 840 м
[Sc]
+31.6 +26.9 76 +49 +55 опасность
перегрева
1011.5 1006.0 +23.5 +33.0
21 19.09 Ю 1 2000 м слабый дождь 10/4 840 м
[Sc As op]
+27.6 +26.1 92 +42 +43 опасность
перегрева
1009.4 1003.9 4
00 20.09 штиль 0 1000 м слабый дождь 10/3 600 м
[Sc As op]
+26.4 +24.8 91 +38 +38 очень
душно
1010.3 1004.8 6
09 20.09 штиль 0 2000 м 5/5 840 м
[Sc diur, vesp]
+24.2 +23.9 98 +33 +33 очень
душно
1011.9 1005.3
12 20.09 штиль 0 3000 м 4/0
[As trans]
+24.2 +23.6 96 +33 +33 очень
душно
1010.7 1005.1 +24.0
15 20.09 штиль 0 5000 м 5/0
[Ac lent]
+28.0 +25.9 88 +42 +49 опасность
перегрева
1012.3 1006.8
18 20.09 штиль 0 4000 м 9/9 840 м
[Sc]
+31.2 +28.4 85 +52 +55 опасность
перегрева
1011.9 1006.4 +24.0 +33.4
21 20.09 штиль 0 4000 м 9/0 2000 м
[As op]
+28.0 +26.9 94 +44 +48 опасность
перегрева
1010.5 1005.0 0.0
00 21.09 штиль 0 4000 м дождь 10/0 2000 м
[As op]
+26.0 +24.9 94 +37 +37 очень
душно
1010.3 1004.8 0.0
03 21.09 штиль 0 3000 м слабый дождь 6/0 2000 м
[As op]
+25.6 +24.8 95 +36 +36 очень
душно
1012.3 1006.8 1
06 21.09 штиль 0 2000 м слабый дождь 4/0 2000 м
[Cc]
+25.0 +24.5 97 +35 +35 очень
душно
1012.1 1006.6 1

 

Местоположение метеостанции Arriaga (Мексика): широта 16.23 долгота -93.90 высота над уровнем моря 48 м.

В архиве по умолчанию представлена погода в Arriaga за последнюю неделю. Архивные данные за месяц целиком и за предыдущие месяцы, начиная с января 2011 года, Вы можете получить, выбрав интересующий диапазон дат из раскрывающегося списка и нажав кнопку "Ввод!".

Внимание! Время в таблицах - всемирное. Для получения местного времени необходимо прибавить поправку, которая в Arriaga равна -6 ч.

Смотрите также архив погоды в соседних городах и на ближайших метеорологических станциях:

Погода в Tuxtla Gutierrez (Мексика) (100 км)
Погода в Salina Cruz (Мексика) (137 км)
Погода в Sn. Cristobal Las C (Мексика) (147 км)
Погода в Comitan (Мексика) (189 км)
Погода в Coatzacoalcos (Мексика) (218 км)
Погода в Villahermosa (Мексика) (220 км)
Погода в Tapachula City (Мексика) (229 км)
Погода в Huehuetenango (Гватемала) (280 км)
Погода в Puerto Angel (Мексика) (283 км)
Погода в Oaxaca (Мексика) (313 км)

Пояснения к столбцам:

Ветер - указаны скорость ветра в м/с - средняя за 10 мин, порывы в срок и между сроками (в фигурных скобках) и направление, откуда дует ветер: С - северный, СВ - северо-восточный, В - восточный, ЮВ - юго-восточный, Ю - южный, ЮЗ - юго-западный, З - западный, СЗ - северо-западный.
Видимость - горизонтальная дальность видимости в метрах или километрах. При видимости от 1 до 10 км при отсутствии осадков обычно наблюдается дымка, при ухудшении видимости до 1 км и менее - туман. В сухую погоду видимость может ухудшаться дымом, пылью или мглою.
Явления - указаны атмосферные явления, наблюдавшиеся в срок или в последний час перед сроком; фигурными скобками обозначены явления, наблюдавшиеся между сроками (за 1-3 часа до срока); квадратными скобками обозначены град или гололедные отложения с указанием их диаметра в мм.
Облачность - указаны через наклонную черту общая и нижняя облачность в баллах и высота нижней границы облаков в метрах; квадратными скобками обозначены формы облаков: Ci - перистые, Cs - перисто-слоистые, Cc - перисто-кучевые, Ac - высококучевые, As - высокослоистые, Sc - слоисто-кучевые, Ns - слоисто-дождевые, Cu - кучевые, Cb - кучево-дождевые. Подробнее классификацию облаков см. в Атласе облаков (PDF).
T - Температура воздуха - температура, измеренная на высоте 2 м над землей.
Td - Температура точки росы - температура, при понижении до которой содержащийся в воздухе водяной пар достигнет насыщения.
f - Относительная влажность воздуха - влажноcть воздуха, измеренная на высоте 2 м над землей.
Te - Эффективная температура - температура, которую ощущает одетый по сезону человек в тени. Характеристика душности погоды. При расчете учитывается влияние влажности воздуха и скорости ветра на теплоощущения человека.
Tes - Эффективная температура на солнце - температура, которую ощущает человек, с поправкой на солнечный нагрев. Характеристика знойности погоды. Зависит от высоты солнца над горизонтом, облачности и скорости ветра. Ночью, в пасмурную погоду, а также при ветре 12 м/с и более поправка равна нулю.
P - Атмосферное давление - приведенное к уровню моря атмосферное давление.
Po - Атмосферное давление - измеренное на уровне метеостанции атмосферное давление.
Tmin - Минимальная температура - минимум температуры воздуха на высоте 2 м над землей.
Tmax - Максимальная температура - максимум температуры воздуха на высоте 2 м над землей.
R - Количество осадков - Количество выпавших осадков за период времени, мм. При наведении курсора мыши на число - период времени, за который выпало указанное количество осадков.
R24 - Количество осадков - Количество выпавших осадков за 24 часа, мм.
S - Снежный покров - Высота снежного покрова, см. При наведении курсора мыши на число - состояние снежного покрова и степень покрытия местности в баллах.